| time (UTC) | temp C | wind direction | speed KPH | gust KPH | rain 1hr cm | rain 24hr cm | rain mn cm | humidity % | barometer mb |
| 20260506091552 | 17 | 201 | 4.8 | 22.5 | 0.00 | 0.51 | 0.10 | 67 | 1005.4 |
| 20260506090013 | 17 | 238 | 8.0 | 22.5 | 0.00 | 0.51 | 0.10 | 70 | 1005.4 |
| 20260506084612 | 17 | 207 | 8.0 | 17.7 | 0.00 | 0.51 | 0.10 | 71 | 1005.3 |
| 20260506083013 | 17 | 176 | 8.0 | 20.9 | 0.00 | 0.51 | 0.10 | 74 | 1005.4 |
| 20260506081549 | 16 | 238 | 6.4 | 25.7 | 0.00 | 0.51 | 0.10 | 76 | 1005.4 |
| 20260506080108 | 16 | 234 | 9.7 | 19.3 | 0.00 | 0.51 | 0.10 | 78 | 1005.4 |
| 20260506073049 | 15 | 229 | 3.2 | 14.5 | 0.00 | 0.51 | 0.10 | 83 | 1005.2 |
| 20260506071602 | 15 | 217 | 4.8 | 12.9 | 0.00 | 0.51 | 0.10 | 86 | 1005.3 |
| 20260506061535 | 13 | 192 | 0.0 | 9.7 | 0.00 | 0.51 | 0.10 | 96 | 1005.1 |
| 20260506044502 | 11 | 200 | 0.0 | 6.4 | 0.00 | 0.51 | 0.10 | 96 | 1005.1 |
| 20260506043057 | 11 | 227 | 0.0 | 4.8 | 0.00 | 0.51 | 0.10 | 96 | 1004.8 |
| 20260506041547 | 11 | 219 | 1.6 | 6.4 | 0.00 | 0.51 | 0.10 | 96 | 1004.9 |
| 20260506040054 | 11 | 227 | 1.6 | 16.1 | 0.00 | 0.51 | 0.10 | 96 | 1004.8 |
| 20260506034616 | 11 | 218 | 3.2 | 8.0 | 0.00 | 0.51 | 0.10 | 96 | 1004.6 |
| 20260506033001 | 11 | 209 | 1.6 | 9.7 | 0.00 | 0.51 | 0.10 | 95 | 1004.6 |
| 20260506031519 | 11 | 232 | 1.6 | 9.7 | 0.00 | 0.51 | 0.10 | 95 | 1004.4 |
| 20260506030032 | 12 | 196 | 0.0 | 8.0 | 0.00 | 0.51 | 0.10 | 95 | 1004.5 |
| 20260506024616 | 12 | 233 | 3.2 | 9.7 | 0.00 | 0.51 | 0.10 | 95 | 1004.5 |
| 20260506023101 | 12 | 219 | 6.4 | 17.7 | 0.00 | 0.51 | 0.10 | 95 | 1004.7 |
| 20260506021538 | 12 | 209 | 3.2 | 9.7 | 0.00 | 0.51 | 0.10 | 95 | 1004.8 |
| 20260506020028 | 12 | 244 | 3.2 | 11.3 | 0.00 | 0.51 | 0.10 | 95 | 1004.6 |
| 20260506014520 | 12 | 219 | 1.6 | 11.3 | 0.00 | 0.51 | 0.10 | 95 | 1004.5 |
| 20260506013007 | 13 | 207 | 3.2 | 11.3 | 0.00 | 0.51 | 0.10 | 95 | 1004.4 |
| 20260506011526 | 13 | 248 | 1.6 | 8.0 | 0.00 | 0.51 | 0.10 | 95 | 1004.2 |
| 20260506010040 | 13 | 237 | 1.6 | 6.4 | 0.00 | 0.51 | 0.10 | 95 | 1004.2 |
| 20260506004533 | 13 | 241 | 1.6 | 8.0 | 0.00 | 0.51 | 0.10 | 95 | 1004.3 |
| 20260506003010 | 13 | 244 | 0.0 | 6.4 | 0.00 | 0.51 | 0.10 | 95 | 1004.3 |
| 20260506001517 | 13 | 245 | 4.8 | 8.0 | 0.00 | 0.51 | 0.10 | 95 | 1004.4 |
| 20260506000014 | 13 | 254 | 0.0 | 6.4 | 0.00 | 0.51 | 0.10 | 95 | 1004.1 |
| 20260505234515 | 13 | 235 | 1.6 | 8.0 | 0.00 | 0.58 | 0.10 | 95 | 1004.3 |
| 20260505233102 | 13 | 263 | 1.6 | 9.7 | 0.03 | 0.58 | 0.10 | 94 | 1004.4 |
| 20260505231506 | 13 | 244 | 1.6 | 6.4 | 0.05 | 0.58 | 0.10 | 94 | 1004.6 |
| 20260505230055 | 13 | 215 | 1.6 | 4.8 | 0.10 | 0.58 | 0.10 | 94 | 1004.8 |
| 20260505224552 | 13 | 215 | 0.0 | 4.8 | 0.15 | 0.71 | 0.10 | 93 | 1004.7 |
| 20260505223054 | 13 | 284 | 0.0 | 4.8 | 0.18 | 0.69 | 0.08 | 93 | 1004.7 |
| 20260505221528 | 13 | 279 | 0.0 | 4.8 | 0.18 | 0.64 | 0.05 | 92 | 1004.6 |
| 20260505220054 | 13 | 285 | 4.8 | 17.7 | 0.20 | 0.61 | 0.00 | 91 | 1004.6 |
| 20260505214518 | 14 | 292 | 6.4 | 24.1 | 0.23 | 0.53 | 0.53 | 91 | 1004.8 |
| 20260505213106 | 15 | 267 | 6.4 | 22.5 | 0.28 | 0.51 | 0.51 | 90 | 1005.0 |
| 20260505211510 | 15 | 300 | 9.7 | 24.1 | 0.28 | 0.46 | 0.46 | 89 | 1004.7 |
| 20260505210024 | 15 | 304 | 6.4 | 19.3 | 0.23 | 0.41 | 0.41 | 85 | 1004.4 |
| 20260505204517 | 16 | 238 | 6.4 | 14.5 | 0.15 | 0.33 | 0.33 | 80 | 1004.1 |
| 20260505203004 | 17 | 227 | 3.2 | 14.5 | 0.05 | 0.23 | 0.23 | 73 | 1003.4 |
| 20260505201518 | 18 | 242 | 1.6 | 8.0 | 0.00 | 0.18 | 0.18 | 65 | 1002.8 |
| 20260505200035 | 18 | 200 | 1.6 | 16.1 | 0.00 | 0.18 | 0.18 | 65 | 1002.7 |
| 20260505194537 | 18 | 259 | 3.2 | 6.4 | 0.00 | 0.18 | 0.18 | 65 | 1002.2 |
| 20260505193036 | 18 | 22 | 1.6 | 9.7 | 0.00 | 0.18 | 0.18 | 64 | 1001.8 |
| 20260505191610 | 18 | 77 | 4.8 | 12.9 | 0.00 | 0.18 | 0.18 | 63 | 1001.8 |
| 20260505190014 | 18 | 19 | 4.8 | 12.9 | 0.00 | 0.18 | 0.18 | 62 | 1002.0 |
| 20260505184506 | 18 | 107 | 6.4 | 16.1 | 0.00 | 0.18 | 0.18 | 60 | 1002.0 |
| 20260505183038 | 19 | 350 | 4.8 | 17.7 | 0.00 | 0.18 | 0.18 | 60 | 1001.9 |
| 20260505181505 | 20 | 74 | 4.8 | 16.1 | 0.00 | 0.18 | 0.18 | 56 | 1001.9 |
| 20260505180042 | 20 | 67 | 3.2 | 19.3 | 0.00 | 0.18 | 0.18 | 55 | 1002.0 |
| 20260505174534 | 20 | 92 | 11.3 | 20.9 | 0.00 | 0.18 | 0.18 | 55 | 1002.3 |
| 20260505173051 | 20 | 128 | 11.3 | 29.0 | 0.00 | 0.18 | 0.18 | 57 | 1002.4 |
| 20260505171602 | 20 | 119 | 6.4 | 24.1 | 0.00 | 0.18 | 0.18 | 57 | 1002.6 |
| 20260505170006 | 21 | 127 | 8.0 | 27.4 | 0.00 | 0.18 | 0.18 | 54 | 1002.7 |
| 20260505164544 | 21 | 115 | 9.7 | 37.0 | 0.00 | 0.18 | 0.18 | 51 | 1002.8 |
| 20260505163053 | 22 | 132 | 9.7 | 29.0 | 0.00 | 0.18 | 0.18 | 48 | 1002.8 |
| 20260505161535 | 24 | 120 | 3.2 | 11.3 | 0.00 | 0.18 | 0.18 | 44 | 1002.5 |
| 20260505160108 | 24 | 117 | 4.8 | 14.5 | 0.00 | 0.18 | 0.18 | 43 | 1002.4 |
| 20260505153116 | 25 | 99 | 6.4 | 12.9 | 0.00 | 0.18 | 0.18 | 40 | 1002.6 |
| 20260505151604 | 24 | 5 | 1.6 | 12.9 | 0.00 | 0.18 | 0.18 | 42 | 1002.9 |
| 20260505150109 | 23 | 38 | 0.0 | 9.7 | 0.00 | 0.18 | 0.18 | 42 | 1002.9 |
| 20260505124511 | 23 | 19 | 4.8 | 19.3 | 0.00 | 0.18 | 0.18 | 45 | 1004.2 |
| 20260505123003 | 23 | 36 | 4.8 | 14.5 | 0.00 | 0.18 | 0.18 | 45 | 1004.3 |
| 20260505121600 | 23 | 78 | 1.6 | 12.9 | 0.00 | 0.18 | 0.18 | 45 | 1004.6 |
| 20260505120024 | 23 | 51 | 1.6 | 12.9 | 0.00 | 0.18 | 0.18 | 44 | 1004.8 |
| 20260505114602 | 23 | 320 | 4.8 | 17.7 | 0.00 | 0.18 | 0.18 | 45 | 1004.9 |
| 20260505113034 | 23 | 315 | 1.6 | 12.9 | 0.00 | 0.18 | 0.18 | 46 | 1005.0 |
| 20260505111552 | 22 | 282 | 3.2 | 12.9 | 0.00 | 0.18 | 0.18 | 47 | 1005.1 |
| 20260505101517 | 22 | 360 | 1.6 | 12.9 | 0.00 | 0.18 | 0.18 | 48 | 1005.6 |
| 20260505100009 | 22 | 291 | 4.8 | 12.9 | 0.00 | 0.18 | 0.18 | 51 | 1005.7 |
| 20260505094607 | 21 | 149 | 1.6 | 14.5 | 0.00 | 0.18 | 0.18 | 54 | 1005.7 |
| 20260505093023 | 21 | 308 | 3.2 | 12.9 | 0.00 | 0.18 | 0.18 | 54 | 1005.9 |